When you browse on this site, cookies collect data to enhance your experience and personalize the content and advertising you see.
Visit our Privacy Policy to learn more. By continuing to use the site, you agree to this use of cookies and data.
  • In Slovakia
  • List of Countries
  • For 7 days
  • Water Temperature
  • Weather Map
  • Weather Widgets
  • user-avatar
    Login

    Hourly Weather Korçe

    Today, 19 November, Tuesday

    Time Temperature Precipitation Wind Pressure Humidity
    00:00 +6°C° 0 mm 2 mps 668 mmHg 83%
    01:00 +6°C° 0 mm 2 mps 668 mmHg 81%
    02:00 +6°C° 0 mm 2 mps 668 mmHg 80%
    03:00 +6°C° 0 mm 2 mps 668 mmHg 78%
    04:00 +6°C° 0 mm 2 mps 668 mmHg 77%
    05:00 +6°C° 0 mm 2 mps 668 mmHg 79%
    06:00 +6°C° 0 mm 2 mps 668 mmHg 80%
    07:00 +6°C° 0 mm 2 mps 668 mmHg 81%
    08:00 +7°C° 0 mm 2 mps 668 mmHg 80%
    09:00 +9°C° 0 mm 2 mps 669 mmHg 79%
    10:00 +10°C° 0 mm 2 mps 669 mmHg 78%
    11:00 +12°C° 0 mm 2 mps 669 mmHg 74%
    12:00 +13°C° 0 mm 2 mps 669 mmHg 70%
    13:00 +14°C° 0 mm 2 mps 669 mmHg 65%
    14:00 +13°C° 0.1 mm 2 mps 668 mmHg 70%
    15:00 +12°C° 0.1 mm 2 mps 668 mmHg 75%
    16:00 +10°C° 0.1 mm 2 mps 667 mmHg 80%
    17:00 +10°C° 0.1 mm 2 mps 667 mmHg 83%
    18:00 +9°C° 0.1 mm 2 mps 667 mmHg 86%
    19:00 +9°C° 0.1 mm 2 mps 667 mmHg 88%
    20:00 +9°C° 0.2 mm 2 mps 667 mmHg 89%
    21:00 +9°C° 0.2 mm 2 mps 667 mmHg 90%
    22:00 +9°C° 0.2 mm 2 mps 666 mmHg 91%
    23:00 +8°C° 1 mm 2 mps 666 mmHg 92%

    Tomorrow, 20 November, Wednesday

    Time Temperature Precipitation Wind Pressure Humidity
    00:00 +8°C° 1 mm 3 mps 666 mmHg 93%
    01:00 +8°C° 1 mm 3 mps 665 mmHg 95%
    02:00 +8°C° 6.3 mm 2 mps 665 mmHg 95%
    03:00 +8°C° 6.3 mm 2 mps 665 mmHg 96%
    04:00 +8°C° 6.3 mm 2 mps 664 mmHg 97%
    05:00 +8°C° 2.4 mm 2 mps 664 mmHg 95%
    06:00 +7°C° 2.4 mm 2 mps 664 mmHg 93%
    07:00 +7°C° 2.4 mm 3 mps 664 mmHg 91%
    08:00 +7°C° 0.1 mm 3 mps 665 mmHg 86%
    09:00 +8°C° 0.1 mm 3 mps 665 mmHg 82%
    10:00 +9°C° 0.1 mm 3 mps 666 mmHg 78%
    11:00 +10°C° 0 mm 3 mps 666 mmHg 73%
    12:00 +11°C° 0 mm 3 mps 666 mmHg 69%
    13:00 +11°C° 0 mm 3 mps 666 mmHg 65%
    14:00 +10°C° 0 mm 2 mps 666 mmHg 70%
    15:00 +9°C° 0 mm 2 mps 665 mmHg 75%
    16:00 +9°C° 0 mm 1 mps 665 mmHg 80%
    17:00 +9°C° 0 mm 1 mps 665 mmHg 83%
    18:00 +8°C° 0 mm 1 mps 665 mmHg 87%
    19:00 +7°C° 0 mm 1 mps 665 mmHg 90%
    20:00 +7°C° 0 mm 1 mps 665 mmHg 91%
    21:00 +7°C° 0 mm 1 mps 666 mmHg 91%
    22:00 +6°C° 0 mm 1 mps 666 mmHg 92%
    23:00 +6°C° 0 mm 1 mps 666 mmHg 91%

    Day after tomorrow, 21 November, Thursday

    Time Temperature Precipitation Wind Pressure Humidity
    00:00 +6°C° 0 mm 1 mps 665 mmHg 91%
    01:00 +6°C° 0 mm 1 mps 665 mmHg 91%
    02:00 +6°C° 0 mm 1 mps 665 mmHg 90%
    03:00 +5°C° 0 mm 1 mps 665 mmHg 89%
    04:00 +5°C° 0 mm 1 mps 665 mmHg 88%
    05:00 +5°C° 0 mm 1 mps 665 mmHg 86%
    06:00 +5°C° 0 mm 1 mps 665 mmHg 83%
    07:00 +5°C° 0 mm 1 mps 665 mmHg 81%
    08:00 +7°C° 0 mm 1 mps 665 mmHg 73%
    09:00 +9°C° 0 mm 1 mps 666 mmHg 64%
    10:00 +10°C° 0 mm 1 mps 666 mmHg 56%
    11:00 +11°C° 0 mm 1 mps 666 mmHg 54%
    12:00 +11°C° 0 mm 1 mps 666 mmHg 52%
    13:00 +12°C° 0 mm 1 mps 666 mmHg 50%
    14:00 +11°C° 0 mm 1 mps 665 mmHg 57%
    15:00 +9°C° 0 mm 0 mps 665 mmHg 64%
    16:00 +8°C° 0 mm 0 mps 664 mmHg 71%
    17:00 +7°C° 0 mm 0 mps 664 mmHg 73%
    18:00 +7°C° 0 mm 0 mps 664 mmHg 74%
    19:00 +7°C° 0 mm 1 mps 665 mmHg 76%
    20:00 +7°C° 0 mm 1 mps 665 mmHg 75%
    21:00 +7°C° 0 mm 1 mps 665 mmHg 75%
    22:00 +7°C° 0 mm 1 mps 665 mmHg 75%
    23:00 +7°C° 0 mm 1 mps 665 mmHg 75%

    22 November, Friday

    Time Temperature Precipitation Wind Pressure Humidity
    00:00 +8°C° 0 mm 1 mps 665 mmHg 76%
    01:00 +7°C° 0 mm 0 mps 664 mmHg 76%
    02:00 +6°C° 0 mm 0 mps 664 mmHg 78%
    03:00 +6°C° 0 mm 0 mps 664 mmHg 80%
    04:00 +6°C° 0 mm 0 mps 664 mmHg 81%
    05:00 +6°C° 0 mm 0 mps 664 mmHg 82%
    06:00 +6°C° 0 mm 0 mps 664 mmHg 84%
    07:00 +6°C° 0 mm 0 mps 664 mmHg 85%
    08:00 +7°C° 0 mm 0 mps 665 mmHg 82%
    09:00 +8°C° 0 mm 0 mps 665 mmHg 80%
    10:00 +9°C° 0 mm 0 mps 666 mmHg 77%
    11:00 +9°C° 0.1 mm 0 mps 666 mmHg 75%
    12:00 +10°C° 0.1 mm 0 mps 666 mmHg 74%
    13:00 +12°C° 0.1 mm 1 mps 666 mmHg 73%
    14:00 +11°C° 0.1 mm 1 mps 666 mmHg 76%
    15:00 +10°C° 0.1 mm 1 mps 665 mmHg 80%
    16:00 +9°C° 0.1 mm 1 mps 665 mmHg 84%
    17:00 +9°C° 0 mm 1 mps 665 mmHg 86%
    18:00 +8°C° 0 mm 1 mps 665 mmHg 88%
    19:00 +6°C° 0 mm 0 mps 665 mmHg 89%
    20:00 +7°C° 0 mm 1 mps 665 mmHg 90%
    21:00 +7°C° 0 mm 1 mps 666 mmHg 90%
    22:00 +7°C° 0 mm 1 mps 666 mmHg 91%
    23:00 +7°C° 0 mm 1 mps 666 mmHg 91%

    23 November, Saturday

    Time Temperature Precipitation Wind Pressure Humidity
    00:00 +7°C° 0 mm 1 mps 666 mmHg 90%
    01:00 +7°C° 0 mm 1 mps 666 mmHg 90%
    02:00 +7°C° 0 mm 1 mps 666 mmHg 91%
    03:00 +7°C° 0 mm 1 mps 666 mmHg 91%
    04:00 +7°C° 0 mm 1 mps 665 mmHg 92%
    05:00 +7°C° 0 mm 1 mps 666 mmHg 92%
    06:00 +7°C° 0 mm 1 mps 666 mmHg 92%
    07:00 +7°C° 0 mm 1 mps 666 mmHg 91%
    08:00 +8°C° 0 mm 1 mps 666 mmHg 87%
    09:00 +9°C° 0 mm 1 mps 667 mmHg 82%
    10:00 +11°C° 0 mm 1 mps 667 mmHg 78%
    11:00 +11°C° 0.1 mm 1 mps 667 mmHg 75%
    12:00 +11°C° 0.1 mm 1 mps 666 mmHg 72%
    13:00 +12°C° 0.1 mm 2 mps 666 mmHg 69%
    14:00 +11°C° 0 mm 1 mps 666 mmHg 74%
    15:00 +10°C° 0 mm 1 mps 665 mmHg 79%
    16:00 +9°C° 0 mm 1 mps 665 mmHg 83%
    17:00 +9°C° 0 mm 1 mps 665 mmHg 86%
    18:00 +8°C° 0 mm 1 mps 665 mmHg 89%
    19:00 +7°C° 0 mm 2 mps 665 mmHg 92%
    20:00 +6°C° 0 mm 2 mps 665 mmHg 92%
    21:00 +6°C° 0 mm 2 mps 665 mmHg 93%
    22:00 +6°C° 0 mm 2 mps 665 mmHg 94%
    23:00 +6°C° 0 mm 2 mps 665 mmHg 92%

    24 November, Sunday

    Time Temperature Precipitation Wind Pressure Humidity
    00:00 +6°C° 0 mm 2 mps 664 mmHg 91%
    01:00 +6°C° 0 mm 2 mps 664 mmHg 89%
    02:00 +6°C° 0.1 mm 2 mps 664 mmHg 88%
    03:00 +6°C° 0.1 mm 2 mps 664 mmHg 87%
    04:00 +6°C° 0.1 mm 2 mps 664 mmHg 86%
    05:00 +5°C° 0 mm 2 mps 664 mmHg 85%
    06:00 +5°C° 0 mm 2 mps 664 mmHg 85%
    07:00 +5°C° 0 mm 2 mps 664 mmHg 84%
    08:00 +7°C° 0 mm 2 mps 664 mmHg 80%
    09:00 +8°C° 0 mm 2 mps 665 mmHg 76%
    10:00 +9°C° 0 mm 2 mps 665 mmHg 72%
    11:00 +9°C° 0 mm 2 mps 665 mmHg 70%
    12:00 +10°C° 0 mm 2 mps 665 mmHg 68%
    13:00 +10°C° 0 mm 2 mps 664 mmHg 66%
    14:00 +10°C° 0 mm 2 mps 664 mmHg 71%
    15:00 +9°C° 0 mm 2 mps 664 mmHg 75%
    16:00 +8°C° 0 mm 2 mps 664 mmHg 79%
    17:00 +7°C° 0 mm 2 mps 664 mmHg 82%
    18:00 +7°C° 0 mm 2 mps 664 mmHg 84%
    19:00 +6°C° 0 mm 2 mps 664 mmHg 87%
    20:00 +6°C° 0 mm 2 mps 664 mmHg 87%
    21:00 +6°C° 0 mm 2 mps 664 mmHg 88%
    22:00 +6°C° 0 mm 2 mps 664 mmHg 88%
    23:00 +6°C° 0 mm 2 mps 664 mmHg 89%
    Show more